Wind_Speed
22 23 23 22 21 22 21 21 21 19 19 19 20 20 19 19 19 19 19 18 18 19 20 20 20 21 21 22 22 22 22 22 21 21 21 21 22 21 21 22 22 22 23 24
23 24 25 25 23 22 23 22 21 22 21 21 21 22 22 22 22 21 21 21 21 20 21 22 21 22 22 23 23 23 23 23 23 22 23 23 23 22 22 23 24 25 25 24
24 24 25 26 23 23 22 22 21 22 22 22 23 23 24 24 22 22 23 23 24 23 23 23 23 24 24 24 24 24 24 24 24 24 24 24 24 23 24 25 26 25 25 25
26 25 26 23 24 23 23 23 24 24 24 25 25 25 24 24 24 24 25 25 26 25 25 25 25 25 25 25 24 24 25 25 25 25 25 25 25 26 26 26 26 26 25 25
27 27 25 24 25 25 24 24 23 24 25 26 26 25 24 24 25 25 25 26 27 26 26 26 26 26 25 26 25 25 25 25 25 26 26 26 27 27 27 27 27 26 27 26
28 28 27 25 24 25 27 26 24 24 24 25 26 27 26 26 25 25 25 26 27 27 26 26 26 26 27 27 26 25 25 25 26 26 27 27 27 27 28 28 28 28 27 27
29 29 28 27 27 26 27 26 25 25 25 25 26 27 28 27 27 27 26 26 27 27 27 27 26 26 26 26 25 25 26 27 27 27 28 27 27 27 28 29 28 28 28 28
30 30 30 28 28 28 27 27 27 27 27 27 28 29 29 28 27 27 27 27 28 27 27 26 25 26 26 25 26 27 27 28 28 28 28 27 27 28 29 28 28 28 28 28
31 30 30 28 28 28 28 29 29 29 30 30 30 30 29 28 28 28 28 28 28 28 27 27 26 26 26 26 27 27 28 28 27 28 28 28 29 29 29 29 28 28 28 28
32 31 31 30 29 29 29 29 29 30 30 30 30 29 28 29 28 28 28 27 27 27 27 26 26 26 27 27 27 28 29 29 28 28 29 29 29 29 30 29 28 28 28 27
32 30 30 30 30 30 30 30 30 30 29 29 28 28 28 28 28 27 27 27 27 27 26 27 27 26 26 26 27 27 28 28 27 27 27 28 28 29 29 29 28 28 28 28
32 32 32 31 30 30 30 29 29 28 27 27 26 27 27 27 26 26 26 26 26 26 25 25 25 25 26 27 27 27 27 28 28 27 27 27 27 27 27 26 27 27 28 27
32 33 32 31 31 31 30 29 28 27 25 24 24 25 25 25 25 24 24 24 23 23 23 23 23 24 24 25 26 26 27 27 26 26 26 26 26 25 25 25 26 27 27 27
31 31 31 31 31 30 29 28 27 27 26 24 24 23 23 23 23 22 22 22 22 22 22 22 23 23 23 24 25 25 25 25 25 25 25 25 25 25 25 25 26 26 27 27
31 31 31 31 31 29 28 28 26 25 25 25 24 22 22 22 22 21 21 21 21 21 22 23 23 22 22 23 23 23 23 23 24 25 25 25 25 24 24 25 26 26 26 26
30 31 31 30 29 28 28 27 26 24 24 23 22 22 22 22 22 22 21 21 21 21 22 22 22 22 22 22 23 23 23 24 25 25 25 25 25 24 24 25 25 25 25 25
29 29 29 28 27 27 26 26 26 24 23 23 22 22 22 22 23 23 22 21 21 22 22 23 23 23 23 23 23 23 23 24 24 25 25 25 24 23 23 24 24 25 24 24
28 27 27 27 27 26 25 26 25 24 23 23 23 23 23 23 24 24 24 22 22 23 23 23 23 23 23 24 24 24 24 24 24 25 24 24 24 23 23 23 23 24 24 24
25 24 24 25 25 25 24 23 24 23 22 22 22 22 22 23 23 23 22 22 22 23 23 24 24 24 25 25 25 25 25 25 24 24 23 23 24 23 23 23 25 24 24 24
22 23 24 24 22 21 21 22 23 24 24 22 22 22 22 22 22 22 22 22 23 24 24 24 24 24 25 25 24 24 24 25 24 24 24 24 24 24 25 25 25 25 24 24
20 20 20 21 21 21 21 22 22 22 23 23 24 24 23 22 23 23 23 23 24 24 24 24 24 24 24 24 24 25 25 25 25 24 24 24 24 24 25 25 26 25 25 25
19 19 19 19 19 20 20 21 21 22 23 23 23 24 24 23 23 23 23 23 24 24 24 25 25 25 25 25 24 24 24 24 24 24 24 25 25 25 25 25 25 25 25 25
19 19 19 18 18 19 20 21 22 22 22 23 23 22 22 21 21 21 21 22 23 23 23 24 24 24 24 24 24 24 24 23 23 24 24 25 25 25 25 25 25 25 25 24
18 18 18 17 17 18 18 19 20 21 22 21 21 21 20 20 20 20 21 21 22 22 23 23 23 24 24 23 23 23 22 23 23 24 24 24 24 24 24 25 26 25 25 25
16 16 16 16 16 16 17 17 18 19 19 19 19 18 18 19 19 20 21 21 21 22 22 22 22 22 22 22 22 22 22 23 24 24 24 24 24 25 25 25 25 24 24 24
15 16 16 16 16 16 16 16 16 16 16 16 17 18 19 19 19 20 20 21 21 22 22 22 22 22 22 22 22 23 23 24 24 24 24 24 24 25 25 25 25 24 24 24
15 16 16 16 15 15 15 16 16 16 16 16 16 17 17 18 18 19 20 21 21 21 21 21 22 22 22 22 23 24 25 25 25 25 25 25 25 26 26 26 25 25 25 25
Wind_Direction
251 253 252 253 255 258 264 269 272 277 277 279 283 286 289 291 293 293 296 298 300 302 304 307 307 306 306 305 304 304 304 303 303 303 302 302 303 303 302 302 302 301 302 303
252 253 254 255 254 257 260 266 271 276 277 280 282 283 285 288 292 294 300 297 298 300 302 303 304 304 303 303 301 301 302 302 302 301 301 300 302 301 301 301 301 300 300 300
252 253 257 255 255 257 261 265 270 272 276 278 282 284 284 287 292 299 300 297 298 300 301 301 302 303 302 302 300 300 301 301 302 301 300 300 300 299 299 299 300 301 299 299
258 258 258 257 255 258 264 267 269 273 275 277 280 284 285 288 290 293 295 298 299 298 298 299 301 303 302 302 300 300 300 300 300 301 300 300 299 299 299 299 299 299 300 302
259 260 262 260 259 260 265 269 274 276 277 278 280 283 284 287 288 290 292 296 298 296 297 299 300 301 301 301 300 299 300 300 300 299 298 298 298 297 298 298 299 299 301 301
256 259 263 263 263 263 264 268 274 279 281 282 280 282 285 285 287 290 292 294 296 296 297 299 299 299 300 300 300 300 300 299 298 298 297 298 298 298 298 299 299 301 302 302
255 257 260 263 264 265 265 268 272 276 279 280 281 282 286 287 288 288 290 294 295 295 296 298 299 299 299 299 300 299 299 298 297 297 297 298 299 299 300 300 298 299 300 300
256 256 259 262 262 263 266 269 272 276 277 278 280 282 284 284 286 289 291 293 295 295 295 297 298 298 299 299 299 299 299 298 297 298 298 299 298 299 299 300 299 299 299 299
257 258 261 261 262 264 265 268 272 275 278 278 278 280 281 282 285 289 290 292 294 296 294 294 296 297 297 297 298 299 299 299 298 297 298 297 298 299 299 299 299 298 297 298
257 258 260 261 263 264 266 268 272 274 276 277 276 277 277 280 284 288 289 290 292 294 295 294 295 296 297 297 298 299 300 299 297 296 297 298 299 299 298 298 298 298 298 299
258 257 258 260 263 265 267 269 273 276 278 280 279 277 276 279 282 285 289 290 293 295 295 295 295 296 298 298 299 300 300 300 300 301 302 300 300 299 298 297 297 298 299 300
256 257 260 262 264 266 268 271 273 274 278 278 277 276 277 279 281 284 287 289 291 293 294 295 296 297 297 298 298 300 302 304 304 304 303 303 302 301 300 300 300 300 300 301
254 257 260 263 264 266 268 271 273 274 276 277 276 276 279 281 284 285 285 287 288 290 293 295 297 297 298 299 301 302 304 305 305 304 304 304 303 301 301 302 302 300 300 302
253 256 259 260 262 265 267 270 273 276 276 275 275 277 279 281 284 284 284 286 288 290 293 295 297 298 299 300 302 304 305 305 306 307 306 306 305 303 302 303 303 302 302 303
254 256 258 260 262 264 266 267 270 273 274 276 277 279 279 280 282 282 284 287 290 291 293 295 297 298 299 301 302 304 305 306 308 309 309 308 307 304 303 304 304 304 304 304
255 256 256 259 261 264 266 267 269 269 270 273 276 278 280 280 282 284 284 286 289 292 293 294 295 297 298 300 302 303 304 305 308 309 310 310 308 307 306 307 308 307 306 306
252 254 255 258 260 264 266 268 269 268 269 271 272 274 276 277 280 282 283 284 288 291 293 294 295 296 297 299 301 303 303 305 307 308 308 309 309 309 309 309 309 310 309 308
252 254 255 257 259 262 263 264 264 263 266 268 268 270 274 277 280 282 283 284 287 291 292 293 294 295 295 297 299 302 304 305 305 306 307 307 309 309 310 311 311 311 312 312
248 251 253 255 258 258 258 260 262 263 265 267 269 271 275 278 280 282 283 286 289 291 292 292 293 295 297 297 299 300 301 303 304 304 306 306 307 308 308 309 309 310 311 313
251 252 253 253 253 255 258 261 264 265 266 268 270 273 276 276 278 280 283 286 289 290 292 293 294 295 296 297 299 299 301 302 303 305 305 306 306 306 307 307 307 308 311 312
250 254 255 253 255 256 258 261 264 265 267 271 273 275 275 275 277 279 283 285 287 289 291 294 295 296 297 298 298 299 299 300 301 303 305 305 305 305 305 305 306 307 309 310
249 253 256 255 255 255 257 260 263 265 268 271 274 275 275 275 276 279 282 284 286 288 291 294 294 295 296 297 298 299 299 300 301 303 304 304 304 305 305 304 305 306 307 308
252 255 259 261 261 261 262 262 263 265 268 271 273 275 275 274 277 279 281 284 287 290 293 295 297 296 296 298 299 300 300 300 302 304 305 305 305 305 306 305 305 306 306 307
255 256 259 261 262 263 263 262 264 265 267 269 270 272 274 277 280 282 283 285 289 292 294 296 299 297 296 298 300 302 302 302 303 305 306 307 306 307 309 310 308 307 307 307
256 258 259 262 263 264 264 264 265 265 265 268 271 273 276 279 282 283 286 288 291 294 295 296 298 298 297 299 300 302 303 304 305 306 306 306 307 308 309 310 310 309 309 309
254 254 257 261 261 261 264 266 267 267 266 269 273 274 277 281 283 285 287 290 292 294 296 298 299 298 299 300 301 302 303 304 305 306 307 307 306 307 307 307 308 308 309 309
253 254 257 259 260 261 262 264 266 269 272 275 276 277 279 283 287 289 290 291 293 295 298 298 298 300 301 302 303 304 305 305 304 304 306 307 307 307 306 306 306 306 305 306
Height
5887 5887 5888 5888 5888 5889 5888 5888 5888 5888 5887 5886 5885 5884 5883 5882 5880 5879 5877 5875 5873 5871 5869 5867 5865 5862 5860 5857 5855 5852 5850 5848 5845 5843 5841 5839 5836 5834 5831 5828 5825 5823 5821 5818
5881 5881 5881 5882 5883 5883 5883 5882 5882 5881 5881 5880 5879 5879 5878 5876 5875 5873 5871 5870 5868 5866 5864 5861 5859 5856 5854 5852 5849 5846 5844 5842 5839 5837 5835 5832 5830 5828 5825 5823 5820 5817 5814 5812
5875 5875 5875 5876 5877 5877 5877 5876 5876 5876 5876 5874 5873 5873 5872 5870 5868 5867 5865 5863 5862 5859 5857 5855 5852 5850 5848 5845 5843 5840 5838 5835 5833 5831 5828 5826 5824 5822 5819 5816 5813 5810 5807 5805
5868 5870 5869 5872 5871 5870 5870 5870 5870 5869 5869 5868 5867 5867 5865 5863 5862 5860 5859 5857 5855 5852 5850 5848 5846 5843 5841 5838 5836 5834 5831 5828 5826 5824 5821 5819 5817 5814 5812 5809 5806 5803 5800 5797
5861 5861 5862 5864 5864 5864 5863 5863 5863 5862 5862 5861 5860 5860 5858 5857 5855 5853 5852 5850 5848 5846 5843 5841 5839 5836 5834 5831 5829 5827 5824 5822 5819 5817 5814 5812 5809 5806 5804 5801 5799 5795 5793 5790
5853 5854 5855 5858 5857 5856 5857 5856 5856 5856 5855 5855 5854 5853 5852 5850 5848 5846 5844 5843 5840 5838 5836 5833 5831 5828 5826 5824 5822 5819 5817 5815 5812 5809 5807 5804 5801 5799 5796 5793 5791 5788 5785 5782
5846 5846 5847 5849 5849 5849 5850 5850 5850 5850 5849 5848 5847 5846 5845 5843 5842 5839 5836 5834 5833 5831 5829 5826 5823 5821 5819 5817 5815 5812 5810 5807 5804 5802 5799 5796 5793 5790 5788 5785 5783 5780 5777 5774
5838 5839 5842 5841 5842 5843 5843 5842 5842 5842 5842 5841 5840 5839 5837 5836 5834 5832 5830 5827 5825 5823 5821 5819 5816 5814 5812 5810 5807 5804 5802 5799 5796 5794 5791 5788 5785 5782 5780 5777 5774 5771 5769 5766
5831 5833 5833 5833 5834 5834 5834 5834 5834 5834 5833 5833 5832 5831 5830 5828 5826 5824 5823 5821 5819 5816 5814 5811 5809 5807 5805 5802 5800 5797 5794 5791 5788 5786 5783 5780 5777 5774 5772 5769 5765 5763 5760 5757
5822 5823 5824 5824 5825 5826 5826 5826 5826 5826 5825 5824 5823 5822 5821 5820 5818 5817 5815 5813 5812 5809 5806 5804 5802 5800 5797 5795 5792 5789 5786 5783 5780 5778 5775 5772 5769 5766 5763 5760 5757 5755 5752 5749
5814 5815 5816 5817 5817 5818 5818 5818 5818 5817 5816 5815 5814 5813 5812 5811 5810 5809 5807 5806 5804 5802 5799 5797 5795 5793 5790 5787 5785 5782 5779 5776 5772 5769 5766 5763 5760 5757 5754 5752 5749 5746 5744 5741
5806 5807 5808 5808 5809 5809 5810 5809 5809 5809 5808 5807 5806 5804 5803 5803 5801 5801 5800 5798 5796 5794 5792 5790 5788 5786 5783 5780 5778 5775 5772 5769 5765 5762 5758 5755 5752 5749 5746 5744 5741 5738 5736 5733
5797 5798 5799 5800 5800 5801 5801 5801 5800 5800 5800 5799 5798 5797 5796 5796 5794 5793 5792 5791 5789 5788 5786 5783 5781 5779 5776 5773 5771 5768 5765 5762 5758 5755 5752 5748 5745 5741 5739 5736 5734 5731 5728 5726
5789 5790 5791 5791 5792 5793 5793 5793 5792 5792 5792 5792 5792 5791 5790 5789 5788 5786 5785 5784 5783 5781 5779 5777 5775 5772 5769 5767 5764 5761 5758 5755 5751 5748 5745 5742 5739 5735 5732 5729 5727 5724 5721 5718
5781 5782 5783 5783 5784 5784 5785 5785 5785 5785 5785 5785 5785 5784 5783 5782 5781 5780 5779 5778 5776 5775 5773 5771 5769 5766 5763 5760 5758 5755 5752 5749 5745 5742 5738 5735 5732 5729 5726 5723 5720 5717 5714 5710
5772 5773 5774 5775 5777 5777 5778 5778 5778 5778 5779 5778 5778 5778 5777 5776 5775 5774 5772 5771 5770 5768 5767 5765 5763 5760 5757 5755 5752 5749 5746 5743 5739 5736 5732 5729 5725 5722 5719 5716 5713 5710 5707 5703
5764 5765 5766 5767 5769 5770 5770 5771 5771 5772 5772 5772 5772 5771 5770 5770 5769 5767 5766 5764 5763 5762 5760 5758 5756 5754 5751 5749 5746 5743 5740 5736 5733 5730 5726 5723 5720 5716 5713 5710 5706 5703 5700 5697
5756 5757 5759 5760 5761 5762 5763 5764 5764 5764 5765 5765 5765 5764 5764 5763 5762 5761 5760 5758 5757 5756 5754 5751 5749 5747 5745 5742 5739 5736 5733 5730 5727 5724 5720 5717 5713 5710 5707 5704 5700 5697 5694 5690
5748 5750 5751 5752 5753 5754 5755 5756 5757 5757 5757 5757 5757 5757 5757 5756 5755 5753 5752 5752 5750 5749 5747 5745 5742 5740 5738 5735 5732 5729 5727 5724 5720 5717 5714 5710 5707 5704 5701 5698 5694 5691 5688 5684
5740 5742 5744 5745 5746 5747 5748 5749 5750 5751 5751 5750 5751 5750 5750 5749 5748 5747 5746 5745 5743 5741 5739 5737 5735 5733 5730 5728 5725 5722 5720 5717 5714 5710 5707 5704 5701 5698 5695 5691 5688 5685 5681 5678
5734 5735 5737 5738 5740 5741 5742 5743 5743 5744 5744 5744 5744 5743 5743 5742 5741 5740 5739 5738 5736 5734 5732 5730 5728 5725 5723 5720 5718 5715 5712 5710 5706 5703 5700 5697 5694 5691 5688 5685 5681 5678 5675 5672
5729 5730 5731 5732 5733 5735 5736 5736 5737 5737 5737 5737 5737 5736 5736 5735 5734 5733 5731 5730 5728 5727 5725 5722 5720 5718 5716 5713 5711 5708 5705 5702 5699 5696 5694 5691 5688 5684 5681 5678 5675 5671 5668 5665
5723 5724 5725 5726 5727 5728 5729 5730 5730 5731 5730 5730 5730 5729 5728 5728 5726 5725 5724 5723 5721 5719 5717 5715 5713 5710 5708 5706 5703 5701 5698 5695 5692 5690 5687 5684 5681 5677 5674 5671 5667 5664 5661 5658
5718 5719 5720 5721 5722 5722 5723 5723 5724 5724 5724 5723 5723 5723 5722 5721 5720 5719 5717 5716 5714 5712 5710 5708 5706 5703 5701 5699 5696 5694 5691 5689 5686 5683 5680 5677 5673 5670 5667 5664 5660 5657 5654 5651
5713 5714 5715 5716 5716 5717 5717 5718 5718 5718 5717 5717 5716 5716 5716 5715 5714 5713 5711 5710 5708 5706 5704 5701 5699 5697 5694 5692 5690 5687 5685 5682 5679 5676 5673 5670 5667 5664 5660 5657 5653 5650 5647 5644
5708 5709 5710 5710 5711 5711 5712 5712 5712 5712 5712 5711 5711 5710 5709 5709 5708 5706 5705 5703 5701 5699 5697 5695 5693 5690 5688 5685 5683 5681 5678 5675 5672 5669 5666 5663 5660 5657 5654 5651 5647 5644 5641 5638
5703 5704 5705 5705 5706 5706 5706 5706 5707 5707 5706 5706 5705 5704 5704 5703 5701 5700 5698 5696 5694 5693 5691 5689 5686 5684 5681 5679 5676 5674 5671 5668 5665 5662 5659 5656 5653 5650 5647 5643 5640 5637 5634 5631